Voltar ao catálogo

THOR ABLESTAR R/B

AtivoPO
NORAD 953·ROCKET BODY·🇺🇸 United States

Lançado Dec 13, 1964 de Vandenberg Space Force Base

Loading…

Próximas Passagens (próximas 24 horas)

TLE

AtualizadoSource: Space-Track

Época: Sep 14, 2026, 06:07 UTC

1 00953U 64083A   26257.25546992  .00000048  00000-0  52921-4 0  9997
2 00953  90.0426 193.4785 0031731 170.1887 347.1792 13.58843315 60677

Acompanhe THOR ABLESTAR R/B em tempo real com AllMySat

Download on the App Store